Tracking 18851 objects as of 25-Nov-2017
HD Live streaming from Space Station
objects crossing your sky now

FENGYUN 1C DEB

Track FENGYUN 1C DEB now!
10-day predictions


NORAD ID: 30726
Int'l Code: 1999-025ASL
Perigee: 835.4 km
Apogee: 964.6 km
Inclination: 99.1 °
Period: 102.8 minutes
Semi major axis: 7271 km
RCS: 0.021 m2 (small)
Launch date: May 10, 1999
Source: People's Republic of China (PRC)
Launch site: Taiyaun Space Center, China (TSC)

Note: This is SATELLITE DEBRIS
aabbcc
Your satellite tracking list
Your tracking list is empty




NASA's NSSDC Master Catalog

Two Line Element Set (TLE):
1 30726U 99025ASL 17328.51677823 +.00000520 +00000-0 +36902-3 0  9993
2 30726 099.0957 268.0274 0088876 063.3107 350.8540 14.00264120547646
Source of the keplerian elements: AFSPC